This demonstration page uses our WeatherBlox Daily Observations layout. Learn more.

Hourly Observations for February 28, 2020

Temp ( °F °C ) Dew Point ( °F °C ) Humidity (%) Winds ( mph kmh ) Pressure ( in mb ) Visibility ( mi km ) Precip ( " mm )
12:02 am 00:02 Cloudy with Light Snow 32 0 28 -2.2 85 85 NW 7 11 30.08 1019 2.5 4.02335 0.001 0.001
12:07 am 00:07 Cloudy with Light Snow 31 -0.6 29 -1.7 92 92 NW 8 13 30.09 1019 1.5 2.41401 0.01 0.254
12:13 am 00:13 Cloudy with Light Snow 31 -0.6 29 -1.7 92 92 WNW 7 11 30.08 1018 2 3.21868 0.01 0.254
12:16 am 00:16 Cloudy with Light Snow 31 -0.6 29 -1.7 92 92 WNW 5 7 30.08 1018 3 4.82802 0.01 0.254
12:39 am 00:39 Cloudy with Light Snow 31 -0.6 29 -1.7 92 92 WNW 6 9 30.08 1018 2 3.21868 0.01 0.254
12:53 am 00:53 Cloudy with Light Snow 31 -0.6 29 -1.7 92 92 NW 6 9 30.06 1018 2 3.21868 0.01 0.254
1:11 am 01:11 Cloudy with Light Snow 32 0 30 -1.1 92 92 W 6 9 30.07 1018 1.75 2.816345 0.01 0.254
1:28 am 01:28 Cloudy with Light Snow 32 0 30 -1.1 92 92 W 5 7 30.06 1018 2 3.21868 0.02 0.508
1:39 am 01:39 Cloudy with Light Snow 32 0 30 -1.1 92 92 W 6 9 30.06 1018 1.75 2.816345 0.03 0.762
1:46 am 01:46 Cloudy with Light Snow 32 0 30 -1.1 92 92 W 8 13 30.06 1018 1 1.60934 0.03 0.762
1:53 am 01:53 Cloudy with Light Snow 31 -0.6 30 -1.1 96 96 W 6 9 30.05 1018 0.75 1.207005 0.04 1.016
2:00 am 02:00 Cloudy with Light Snow 31 -0.6 30 -1.1 96 96 VRB 6 9 30.07 1018 1 1.60934 0.001 0.001
2:15 am 02:15 Cloudy with Light Snow 31 -0.6 30 -1.1 96 96 WSW 5 7 30.06 1018 1.75 2.816345 0.01 0.254
2:24 am 02:24 Cloudy with Light Snow 31 -0.6 30 -1.1 96 96 WSW 5 7 30.06 1018 2 3.21868 0.01 0.254
2:31 am 02:31 Cloudy with Light Snow 31 -0.6 30 -1.1 96 96 WSW 8 13 30.06 1018 3 4.82802 0.01 0.254
2:53 am 02:53 Cloudy 31 -0.6 30 -1.1 96 96 WSW 6 9 30.03 1017 8 12.87472 0.01 0.254
3:10 am 03:10 Cloudy with Light Snow 31 -0.6 30 -1.1 96 96 W 7 11 30.05 1017 1.75 2.816345 0.001 0.001
3:12 am 03:12 Cloudy with Light Snow 31 -0.6 30 -1.1 96 96 W 5 7 30.05 1017 1 1.60934 0.001 0.001
3:15 am 03:15 Cloudy with Light Snow 31 -0.6 30 -1.1 96 96 NW 7 11 30.05 1017 0.75 1.207005 0.01 0.254
3:20 am 03:20 Cloudy with Light Snow 31 -0.6 30 -1.1 96 96 NW 8 13 30.05 1017 1 1.60934 0.01 0.254
3:25 am 03:25 Cloudy with Light Snow 31 -0.6 30 -1.1 96 96 NW 7 11 30.05 1017 2 3.21868 0.01 0.254
3:31 am 03:31 Cloudy with Light Snow 31 -0.6 29 -1.7 92 92 NW 8 13 30.05 1017 4 6.43736 0.01 0.254
3:38 am 03:38 Cloudy with Light Snow 31 -0.6 28 -2.2 89 89 NW 7 11 30.05 1017 5 8.0467 0.01 0.254
3:53 am 03:53 Cloudy 31 -0.6 24 -4.4 76 76 NW 9 15 30.04 1017 10 16.0934 0.01 0.254
4:00 am 04:00 Mostly Cloudy 30 -1.1 23 -5 75 75 NW 10 17 30.06 1018 10 16.0934 0 0
4:53 am 04:53 Mostly Clear 26 -3.3 20 -6.7 78 78 WNW 8 13 30.04 1017 10 16.0934 0 0
5:53 am 05:53 Clear 22 -5.6 20 -6.7 92 92 W 3 6 30.05 1018 8 12.87472 0 0
6:53 am 06:53 Mostly Cloudy 20 -6.7 18 -7.8 92 92 W 3 6 30.05 1018 7 11.26538 0 0
7:53 am 07:53 Sunny 22 -5.6 20 -6.7 92 92 W 5 7 30.06 1018 8 12.87472 0 0
8:53 am 08:53 Partly Cloudy 26 -3.3 15 -9.4 63 63 WNW 10 17 30.07 1018 10 16.0934 0 0
9:53 am 09:53 Mostly Cloudy 27 -2.8 15 -9.4 61 61 W 8 13 30.07 1018 10 16.0934 0 0
10:53 am 10:53 Mostly Cloudy 30 -1.1 17 -8.3 58 58 W 7 11 30.07 1018 10 16.0934 0 0
11:53 am 11:53 Mostly Cloudy 31 -0.6 17 -8.3 56 56 WNW 13 20 30.08 1019 10 16.0934 0 0
12:53 pm 12:53 Partly Cloudy 32 0 19 -7.2 59 59 WNW 12 19 30.06 1018 10 16.0934 0 0
1:53 pm 13:53 Cloudy 33 0.6 20 -6.7 58 58 W 8 13 30.04 1017 10 16.0934 0 0
2:53 pm 14:53 Cloudy 34 1.1 22 -5.6 61 61 W 9 15 30.03 1017 10 16.0934 0 0
3:53 pm 15:53 Cloudy 34 1.1 23 -5 64 64 W 9 15 30.03 1017 10 16.0934 0 0
4:53 pm 16:53 Cloudy with Light Snow 33 0.6 23 -5 66 66 W 10 17 30.04 1017 9 14.48406 0.001 0.001
5:48 pm 17:48 Cloudy with Light Snow 30 -1 25 -4 80 80 W 13 20 30.08 1018 3 4.82802 0.001 0.001
5:53 pm 17:53 Cloudy with Light Snow 31 -0.6 25 -3.9 79 79 W 9 15 30.06 1018 2 3.21868 0.001 0.001
6:13 pm 18:13 Cloudy with Light Snow 31 -0.6 26 -3.3 82 82 W 7 11 30.09 1019 1.75 2.816345 0.001 0.001
6:22 pm 18:22 Cloudy with Light Snow 30 -1.1 26 -3.3 85 85 W 6 9 30.09 1019 2.5 4.02335 0.001 0.001
6:53 pm 18:53 Cloudy with Light Snow 30 -1.1 26 -3.3 85 85 W 8 13 30.08 1019 1.75 2.816345 0.001 0.001
7:02 pm 19:02 Cloudy with Light Snow 30 -1.1 26 -3.3 85 85 WNW 7 11 30.1 1019 1.25 2.011675 0.001 0.001
7:23 pm 19:23 Cloudy with Light Snow 29 -1.7 26 -3.3 89 89 WNW 10 17 30.1 1019 2 3.21868 0.01 0.254
7:32 pm 19:32 Cloudy with Light Snow 29 -1.7 26 -3.3 89 89 WNW 7 11 30.1 1019 3 4.82802 0.01 0.254
7:53 pm 19:53 Cloudy with Light Snow 29 -1.7 26 -3.3 89 89 WNW 8 13 30.09 1019 3 4.82802 0.01 0.254
8:01 pm 20:01 Cloudy with Light Snow 29 -1.7 25 -3.9 85 85 WNW 10 17 30.11 1020 2.5 4.02335 0.001 0.001
8:08 pm 20:08 Cloudy with Light Snow 29 -1.7 26 -3.3 89 89 WNW 9 15 30.11 1020 2.5 4.02335 0.001 0.001
8:21 pm 20:21 Cloudy with Light Snow 29 -1.7 26 -3.3 89 89 NW 6 9 30.11 1020 3 4.82802 0.001 0.001
8:25 pm 20:25 Cloudy with Light Snow 29 -1.7 26 -3.3 89 89 NW 8 13 30.11 1020 3 4.82802 0.001 0.001
8:30 pm 20:30 Cloudy with Light Snow 29 -1.7 26 -3.3 89 89 NW 12 19 30.11 1020 2.5 4.02335 0.001 0.001
8:39 pm 20:39 Cloudy with Light Snow 29 -1.7 24 -4.4 82 82 NW 13 20 30.11 1020 5 8.0467 0.001 0.001
8:53 pm 20:53 Cloudy with Light Snow 29 -1.7 24 -4.4 82 82 NW 8 13 30.1 1019 5 8.0467 0.001 0.001
9:29 pm 21:29 Cloudy 28 -2.2 22 -5.6 78 78 NW 10 17 30.12 1020 9 14.48406 0.001 0.001
9:53 pm 21:53 Cloudy 28 -2.2 21 -6.1 75 75 NNW 9 15 30.11 1020 10 16.0934 0.001 0.001
10:12 pm 22:12 Cloudy 28 -2.2 21 -6.1 75 75 NNW 8 13 30.14 1021 10 16.0934 0 0
10:44 pm 22:44 Cloudy 27 -2.8 20 -6.7 75 75 NNW 10 17 30.15 1021 9 14.48406 0.001 0.001
10:53 pm 22:53 Cloudy 27 -2.8 20 -6.7 75 75 NNW 9 15 30.13 1020 10 16.0934 0.001 0.001
11:19 pm 23:19 Cloudy 26 -3.3 19 -7.2 75 75 NW 12 19 30.15 1021 10 16.0934 0 0
11:53 pm 23:53 Mostly Cloudy 25 -3.9 16 -8.9 69 69 NNW 12 19 30.14 1021 10 16.0934 0 0

Powered by AerisWeather